Regional Weather Roundup
Issued by NWS Sioux Falls, SD

Home | Current Version | Previous Version | Text Only | Print | Product List | Glossary On
Versions: 1 2 3 4 5 6 7 8 9 10 11 12 13 14 15 16 17 18 19 20 21 22 23 24 25 26 27 28 29 30 31 32 33 34 35 36 37 38 39 40 41 42 43 44 45 46 47 48 49 50
000
ASUS43 KFSD 051810
RWRFSD

WEATHER ROUNDUP FOR SE SOUTH DAKOTA/SW MINNESOTA/NW IOWA
NATIONAL WEATHER SERVICE SIOUX FALLS SD
1200 PM CST THU MAR 05 2015

NOTE: "FAIR" INDICATES FEW OR NO CLOUDS BELOW 12,000 FEET WITH NO
SIGNIFICANT WEATHER AND OR OBSTRUCTIONS TO VISIBILITY.


SDZ038>040-050-052>070-051900-
SOUTHEAST SOUTH DAKOTA

CITY           SKY/WX    TMP DP  RH WIND       PRES   REMARKS
CHAMBERLAIN    SUNNY     24   9  52 S10       30.30S WCI  14
6HR MIN TEMP:  -9; 6HR MAX TEMP:  25;

HURON          SUNNY     19   6  57 S13       30.35F WCI   6
6HR MIN TEMP:  -8; 6HR MAX TEMP:  19;

MADISON        FAIR      14   5  67 S16       30.37F WCI  -2
MITCHELL       SUNNY     23   8  52 S15       30.38F WCI  10
6HR MIN TEMP:  -7; 6HR MAX TEMP:  23;

SIOUX FALLS    FAIR      16   3  56 S12       30.42F WCI   3
6HR MIN TEMP: -10; 6HR MAX TEMP:  16;

WINNER         FAIR      27  10  49 S15       30.26F WCI  15
YANKTON        FAIR      25   1  36 S8G16     30.43F WCI  16
$$

MNZ071-072-080-081-089-090-097-098-051900-
SOUTHWEST MINNESOTA

CITY           SKY/WX    TMP DP  RH WIND       PRES   REMARKS
FAIRMONT       FAIR       9  -2  61 SW9       30.47F WCI  -5
JACKSON        FAIR      12  -2  52 SW10      30.45F WCI  -1
LUVERNE        FAIR      16   3  57 S12       30.44F WCI   3
MARSHALL       FAIR      12  -2  52 SW12      30.44F WCI  -2
6HR MIN TEMP:  -9; 6HR MAX TEMP:  12;

MONTEVIDEO     FAIR      14   3  62 SW8       30.45F WCI   3
PIPESTONE      FAIR       9   1  72 SW12      30.39F WCI  -6
REDWOOD FALLS  FAIR       9  -2  61 S12       30.48S WCI  -6
TRACY          FAIR      13   0  57 SW13      30.44F WCI  -2
WINDOM         FAIR      10   0  61 SW12      30.44F WCI  -4
WORTHINGTON    FAIR      10   0  61 SW12      30.45F WCI  -4
$$

IAZ001>003-012>014-020>022-031-032-NEZ013-014-SDZ071-051900-
NORTHWEST IOWA

CITY           SKY/WX    TMP DP  RH WIND       PRES   REMARKS
CHEROKEE       FAIR      13   1  57 S8        30.50F WCI   2
DENISON        FAIR      14   0  52 SW7       30.50S WCI   4
ESTHERVILLE    FAIR       9  -2  61 SW10      30.47F WCI  -5
LE MARS        FAIR      18   1  49 VRB7G13   30.48F WCI   8
ORANGE CITY    FAIR      18   1  49 SW9       30.46S WCI   6
SHELDON        FAIR      14   0  52 SW9       30.45F WCI   2
SIOUX CITY     FAIR      21   1  41 S12       30.50F WCI   9
6HR MIN TEMP:  -6; 6HR MAX TEMP:  21;

SPENCER        FAIR      13  -2  51 SW10      30.47F WCI   0
6HR MIN TEMP:  -9; 6HR MAX TEMP:  13;

STORM LAKE     FAIR      10  -2  56 SW7G15    30.48F WCI   0
$$

ABBREVIATIONS USED IN REMARKS
   TC - TEMPERATURE IN CELSIUS
  WCI - WIND CHILL INDEX
   HX - HEAT INDEX
  VSB - VISIBILITY




USA.gov is the U.S. government's official web portal to all federal, state and local government web resources and services.